Regional Weather Roundup
Issued by NWS

Home | Current Version | Previous Version | Text Only | Print | Product List | Glossary Off
Versions: 1 2 3 4 5 6 7 8 9 10 11 12 13 14 15 16 17 18 19 20 21 22 23 24 25 26 27 28 29 30 31 32 33 34 35 36 37 38 39 40 41 42 43 44 45 46 47 48 49 50

000
ASUS45 KBOU 022110
RWRCO

WEATHER ROUNDUP FOR COLORADO
NATIONAL WEATHER SERVICE DENVER/BOULDER CO
300 PM MDT SUN AUG 02 2015

NOTE: "FAIR" INDICATES FEW OR NO CLOUDS BELOW 12000 FEET WITH NO
SIGNIFICANT WEATHER AND/OR OBSTRUCTIONS TO VISIBILITY.

COZ001>005-013-030-031-022200-
...NORTHWEST COLORADO...

CITY           SKY/WX    TMP DP  RH WIND       PRES   REMARKS
CRAIG          PTSUNNY   88  42  20 NE5       30.11F
HAYDEN         PTSUNNY   84  36  17 NW5       30.14F
MEEKER         CLOUDY    82  48  30 S5        30.16F
MOUNT WERNER   NOT AVBL
STEAMBOAT SPGS PTSUNNY   84  37  18 W5        30.16F
WALDEN         MOSUNNY   79  30  17 E12G20    30.27F
$$

COZ006>008-011-022200-
...WEST CENTRAL VALLEYS...

CITY           SKY/WX    TMP DP  RH WIND       PRES   REMARKS
GRAND JUNCTION CLOUDY    77  55  46 VRB3      30.08F
MONTROSE       CLOUDY    72  54  53 SW7       30.18F
EAGLE          CLOUDY    81  43  26 W6        30.16F
RIFLE          CLOUDY    82  49  31 NW8       30.10F
DELTA          CLOUDY    81  49  33 E7        30.12F
NUCLA          CLOUDY    68  59  73 NW6       30.21F
$$

COZ017>023-064>068-022200-
...SOUTHWEST COLORADO...

CITY           SKY/WX    TMP DP  RH WIND       PRES   REMARKS
DURANGO        CLOUDY    77  50  38 VRB5      30.17F
CORTEZ         SUNNY     75  57  53 S12       30.15F
PAGOSA SPRINGS PTSUNNY   73  42  31 NE14G22   30.27F
TELLURIDE      TSTM      60  56  87 E3        30.39F
WOLF CREEK PAS NOT AVBL
$$

COZ009-010-012-014-032>034-037-058>063-022200-
...CENTRAL COLORADO...

CITY           SKY/WX    TMP DP  RH WIND       PRES   REMARKS
ASPEN          CLOUDY    75  43  31 CALM      30.25F THUNDER
BUENA VISTA    CLOUDY    74  39  28 NE12      30.29R
COPPER MTN     CLOUDY    59  37  44 W10G18    30.64S
BERTHOUD PASS  PTSUNNY   41  32  70 MISG      30.68F
COTTONWOOD PAS CLOUDY    70  41  35 CALM      30.45S
GUNNISON       CLOUDY    72  46  40 S17G29    30.32R
KREMMLING      CLOUDY    81  32  17 S21G26    30.22S
LEADVILLE      CLOUDY    61  37  41 NE7       30.43S
MONARCH PASS   CLOUDY    52  34  50 E9G26     30.70F
SALIDA         CLOUDY    80  37  21 E5        30.30S
SUNLIGHT       CLOUDY    64  48  55 CALM      30.53F
WILKERSON PASS RAIN      46  43  87 E14       30.61S
$$

COZ069>075-022200-
...SAN LUIS VALLEY/SANGRE DE CRISTO MOUNTAINS...

CITY           SKY/WX    TMP DP  RH WIND       PRES   REMARKS
ALAMOSA        CLOUDY    77  46  33 NW13      30.24F
LA VETA PASS   CLOUDY    59  45  58 MISG      30.46F
SAGUACHE       CLOUDY    73  48  40 S7        30.29S
$$

COZ035-036-038>040-022200-
...NORTHERN COLORADO FRONT RANGE...

CITY           SKY/WX    TMP DP  RH WIND       PRES   REMARKS
DENVER INTL AP PTSUNNY   89  37  16 SE6       30.08S THUNDER
DMNS CITY PARK   N/A     79  47  32 SW14G25   30.10S
AURORA         TSTM      84  45  25 NE20G33   30.09F
FRONT RANGE AP PTSUNNY   88  36  15 E9          N/A  THUNDER
ERIE MUNI ARPT CLOUDY    88  49  25 N12       30.05F
BOULDER MUN AP CLOUDY    88  50  27 N10       30.07F
CENTENNIAL     TSTM      81  44  27 W23G31    30.13R
BROOMFIELD     CLOUDY    88  43  20 W6        30.10
FORT COLLINS   CLOUDY    84  50  30 NW10      30.05F
LONGMONT       CLOUDY    90  51  26 N8        30.07F
$$

COZ041-046-047-076>085-087-088-022200-
...PIKES PEAK/PALMER DIVIDE AND SOUTHERN FOOTHILLS...

CITY           SKY/WX    TMP DP  RH WIND       PRES   REMARKS
COLO. SPRINGS  PTSUNNY   85  43  22 SE14      30.17S
A. F. ACADEMY  PTSUNNY   83  43  24 SE10      30.18S
ELLICOTT       PTSUNNY  N/A N/A N/A SE12      30.15F
FALCON         PTSUNNY   81  44  27 SE6       30.23F
FORT CARSON    PTSUNNY   85  46  26 E8        30.13F
LIMON          MOSUNNY   90  44  20 VRB7      30.10F
MONUMENT HILL  NOT AVBL
TRINIDAD       PTSUNNY   86  47  25 E10       30.10F
$$

COZ042>045-048>051-090-091-022200-
...NORTHEAST COLORADO...

CITY           SKY/WX    TMP DP  RH WIND       PRES   REMARKS
GREELEY ARPT   CLOUDY    88  55  33 NW13      30.03F
AKRON          MOSUNNY   93  46  19 SE16G22   30.04F
BURLINGTON     SUNNY     92  43  18 VRB6      30.02F
WRAY           MOSUNNY   95  44  17 CALM      29.96F
STERLING       MOSUNNY   93  52  24 S8        29.97S
HOLYOKE        MOSUNNY   97  50  20 SW5       29.96F
FORT MORGAN    MOSUNNY   96  41  15 S8        30.02S
$$

COZ086-089-092>099-022200-
...SOUTHEAST COLORADO...

CITY           SKY/WX    TMP DP  RH WIND       PRES   REMARKS
PUEBLO         MOSUNNY   94  47  20 SE9G18    30.02F
LA JUNTA       MOSUNNY   95  47  19 E16G23    29.99F
LAMAR          MOSUNNY   98  35  11 E14G22    29.95F
SPRINGFIELD      N/A     91  47  21 NE14G20   30.01F
$$


USA.gov is the U.S. government's official web portal to all federal, state and local government web resources and services.